Find KUIPER-00436

NORAD ID: 68939 Int'l Des: 2026-098W Owner: KUIP Country: US Constellation: amazon-leo operational
LEOCIRCULAR

实时位置

正在加载3D地球...

关于 KUIPER-00436

正在加载描述...

即将过境

Passes for default location (London). Set your location on the main map for personalized predictions.

高度历史

Loading altitude history...

两行轨道根数

1 68939U 26098W 26125.83336806 .00056991 00000-0 17167-2 0 9997
2 68939 51.8757 271.8104 0010216 359.6415 283.0170 15.33737258 1305
Epoch: May 5, 2026 • Age: 6 hours

当前状态

高度 471.2 km
速度 7.63 km/s
星下点 23.02°N, 177.84°W
发射日期 Apr 30, 2026
运行时间 6 days
类型 internet

技术详情

分类 Payload
质量 490.00 kg
干质量 490.00 kg
总质量 490.00 kg
长度 1.80 m
直径 0.70 m
跨度 5.00 m
形状 Box + 2 pan
制造商 KUIP
平台类型 Kuiper
阶段状态 In Orbit
所有者/国家 KUIP/US

Most Searched